Regional Weather Roundup
Issued by NWS Midland/Odessa, TX

Skip options and go directly to product.
Home | Oldest Version | Previous Version | Current Version | All | Text Only | Save Text | Print | Product List | Glossary On

Skip product version selection by date and time.   
660
ASUS44 KMAF 082310
RWRMAF
MIDLAND AREA WEATHER ROUNDUP
NATIONAL WEATHER SERVICE MIDLAND TX
500 PM CST MON FEB 08 2016

...IN SOUTHWEST TEXAS AND SOUTHEAST NEW MEXICO...

CITY           SKY/WX    TMP DP  RH WIND       PRES   REMARKS
ALPINE         SUNNY     55  19  24 NE8       30.41R
ANDREWS        FAIR      53  12  20 N5        30.37S
ARTESIA        SUNNY     52  14  22 SE12      30.37S
BIG SPRING     SUNNY     55  16  21 NW9       30.38S
CARLSBAD       SUNNY     51  12  21 SE9       30.37R
DRYDEN           N/A     59  13  16 MISG      30.36R
FORT STOCKTON  SUNNY     52  14  22 NE6       30.39S
GUAD PASS      SUNNY     48  10  21 E10       30.37S
HOBBS          SUNNY     50  10  20 CALM      30.37F
MARFA          SUNNY     54  16  22 CALM      30.36R
MIDLAND AIRPK  SUNNY     55  14  19 NW6       30.37F
MIDLAND INTL   SUNNY     56  14  19 N8        30.37F
ODESSA         SUNNY     55  12  18 VRB3      30.37F
PECOS          SUNNY     54  13  20 CALM      30.40S
PRESIDIO       FAIR      62  15  16 NE8       30.31S
SEMINOLE       SUNNY     52  13  21 CALM      30.37F
SNYDER           N/A     57  17  21 NW12      30.35F
WINK           SUNNY     53  13  20 CALM      30.38S
$$
...OTHER STATIONS IN TEXAS...

CITY           SKY/WX    TMP DP  RH WIND       PRES   REMARKS
ABILENE        SUNNY     57  13  17 NW20G26   30.32F
AMARILLO       SUNNY     53  19  26 NW16G25   30.32F
AUSTIN         MOSUNNY   63  16  16 N18G26    30.28R
BROWNSVILLE    PTSUNNY   61  41  47 N12G20    30.33R
CORPUS CHRISTI PTSUNNY   68  20  16 NW10      30.30R
DALLAS FTW     MOSUNNY   56   4  12 NW30G39   30.23F
DEL RIO        SUNNY     63  15  15 VRB6      30.36S
EL PASO        MOSUNNY   61  15  16 CALM      30.29F
HOUSTON INT    MOSUNNY   61  14  16 NW24G33   30.22R
LUBBOCK        MOSUNNY   56  18  22 N12       30.33F
SAN ANGELO     SUNNY     60  13  15 NW13      30.34F
SAN ANTONIO    MOSUNNY   63  18  17 N13       30.32S
WACO           SUNNY     58   8  13 NW20G29   30.28S
WICHITA FALLS  NOT AVBL
$$
...OTHER LOCATIONS IN NEW MEXICO...

CITY           SKY/WX    TMP DP  RH WIND       PRES   REMARKS
ALAMAGORDO     SUNNY     59  16  18 CALM      30.31S
ALBUQUERQUE    MOSUNNY   57  18  21 N16       30.34S
CANNON AFB     SUNNY     51  15  24 CALM      30.34F
CLOVIS         SUNNY     50  18  27 W7        30.36S
HOLLOMAN AFB   SUNNY     60  18  19 VRB2      30.29F
ROSWELL        SUNNY     51  16  24 VRB3      30.37S
RUIDOSO          N/A     55  10  16 CALM      30.37R
SANTA FE       CLOUDY    57  15  19 N12       30.32F
TRUTH OR CONSE SUNNY     61  14  16 CALM      30.29F
TUCUMCARI      SUNNY     53  15  22 CALM      30.33F
$$

USA.gov is the U.S. government's official web portal to all federal, state and local government web resources and services.